Year,Month,Day,Hour,Minute,Value (Times are PST for temperature in C)
2008,11,18,00,00,10.20
2008,11,18,00,01,10.20
2008,11,18,00,02,10.20
2008,11,18,00,03,10.20
2008,11,18,00,04,10.20
2008,11,18,00,05,10.30
2008,11,18,00,06,10.30
2008,11,18,00,07,10.30
2008,11,18,00,08,10.30
2008,11,18,00,09,10.30
2008,11,18,00,10,10.30
2008,11,18,00,11,10.30
2008,11,18,00,12,10.30
2008,11,18,00,13,10.20
2008,11,18,00,14,10.20
2008,11,18,00,15,10.20
2008,11,18,00,16,10.20
2008,11,18,00,17,10.20
2008,11,18,00,18,10.20
2008,11,18,00,19,10.10
2008,11,18,00,20,10.10
2008,11,18,00,21,10.10
2008,11,18,00,22,10.00
2008,11,18,00,23,10.00
2008,11,18,00,24,10.00
2008,11,18,00,25,10.10
2008,11,18,00,26,10.10
2008,11,18,00,27,10.20
2008,11,18,00,28,10.20
2008,11,18,00,29,10.20
2008,11,18,00,30,10.20
2008,11,18,00,31,10.20
2008,11,18,00,32,10.20
2008,11,18,00,33,10.20
2008,11,18,00,34,10.20
2008,11,18,00,35,10.30
2008,11,18,00,36,10.30
2008,11,18,00,37,10.40
2008,11,18,00,38,10.50
2008,11,18,00,39,10.50
2008,11,18,00,40,10.60
2008,11,18,00,41,10.60
2008,11,18,00,42,10.60
2008,11,18,00,43,10.70
2008,11,18,00,44,10.70
2008,11,18,00,45,10.70
2008,11,18,00,46,10.70
2008,11,18,00,47,10.70
2008,11,18,00,48,10.60
2008,11,18,00,49,10.70
2008,11,18,00,50,10.70
2008,11,18,00,51,10.70
2008,11,18,00,52,10.70
2008,11,18,00,53,10.70
2008,11,18,00,54,10.70
2008,11,18,00,55,10.70
2008,11,18,00,56,10.70
2008,11,18,00,57,10.70
2008,11,18,00,58,10.70
2008,11,18,00,59,10.70
2008,11,18,01,00,10.70
2008,11,18,01,01,10.70
2008,11,18,01,02,10.70
2008,11,18,01,03,10.70
2008,11,18,01,04,10.70
2008,11,18,01,05,10.60
2008,11,18,01,06,10.60
2008,11,18,01,07,10.60
2008,11,18,01,08,10.60
2008,11,18,01,09,10.60
2008,11,18,01,10,10.60
2008,11,18,01,11,10.60
2008,11,18,01,12,10.60
2008,11,18,01,13,10.60
2008,11,18,01,14,10.60
2008,11,18,01,15,10.60
2008,11,18,01,16,10.60
2008,11,18,01,17,10.60
2008,11,18,01,18,10.60
2008,11,18,01,19,10.60
2008,11,18,01,20,10.60
2008,11,18,01,21,10.60
2008,11,18,01,22,10.60
2008,11,18,01,23,10.60
2008,11,18,01,24,10.60
2008,11,18,01,25,10.60
2008,11,18,01,26,10.60
2008,11,18,01,27,10.60
2008,11,18,01,28,10.60
2008,11,18,01,29,10.60
2008,11,18,01,30,10.60
2008,11,18,01,31,10.60
2008,11,18,01,32,10.60
2008,11,18,01,33,10.60
2008,11,18,01,34,10.60
2008,11,18,01,35,10.60
2008,11,18,01,36,10.70
2008,11,18,01,37,10.70
2008,11,18,01,38,10.70
2008,11,18,01,39,10.70
2008,11,18,01,40,10.70
2008,11,18,01,41,10.70
2008,11,18,01,42,10.70
2008,11,18,01,43,10.70
2008,11,18,01,44,10.70
2008,11,18,01,45,10.70
2008,11,18,01,46,10.70
2008,11,18,01,47,10.70
2008,11,18,01,48,10.70
2008,11,18,01,49,10.60
2008,11,18,01,50,10.60
2008,11,18,01,51,10.60
2008,11,18,01,52,10.60
2008,11,18,01,53,10.60
2008,11,18,01,54,10.60
2008,11,18,01,55,10.50
2008,11,18,01,56,10.50
2008,11,18,01,57,10.50
2008,11,18,01,58,10.50
2008,11,18,01,59,10.40
2008,11,18,02,00,10.40
2008,11,18,02,01,10.40
2008,11,18,02,02,10.40
2008,11,18,02,03,10.40
2008,11,18,02,04,10.40
2008,11,18,02,05,10.40
2008,11,18,02,06,10.40
2008,11,18,02,07,10.40
2008,11,18,02,08,10.30
2008,11,18,02,09,10.30
2008,11,18,02,10,10.30
2008,11,18,02,11,10.30
2008,11,18,02,12,10.30
2008,11,18,02,13,10.30
2008,11,18,02,14,10.30
2008,11,18,02,15,10.30
2008,11,18,02,16,10.20
2008,11,18,02,17,10.20
2008,11,18,02,18,10.20
2008,11,18,02,19,10.20
2008,11,18,02,20,10.20
2008,11,18,02,21,10.20
2008,11,18,02,22,10.20
2008,11,18,02,23,10.20
2008,11,18,02,24,10.20
2008,11,18,02,25,10.20
2008,11,18,02,26,10.20
2008,11,18,02,27,10.20
2008,11,18,02,28,10.20
2008,11,18,02,29,10.20
2008,11,18,02,30,10.10
2008,11,18,02,31,10.10
2008,11,18,02,32,10.10
2008,11,18,02,33,10.10
2008,11,18,02,34,10.10
2008,11,18,02,35,10.10
2008,11,18,02,36,10.10
2008,11,18,02,37,10.10
2008,11,18,02,38,10.10
2008,11,18,02,39,10.10
2008,11,18,02,40,10.10
2008,11,18,02,41,10.10
2008,11,18,02,42,10.10
2008,11,18,02,43,10.10
2008,11,18,02,44,10.10
2008,11,18,02,45,10.10
2008,11,18,02,46,10.10
2008,11,18,02,47,10.10
2008,11,18,02,48,10.10
2008,11,18,02,49,10.10
2008,11,18,02,50,10.10
2008,11,18,02,51,10.10
2008,11,18,02,52,10.10
2008,11,18,02,53,10.10
2008,11,18,02,54,10.10
2008,11,18,02,55,10.10
2008,11,18,02,56,10.10
2008,11,18,02,57,10.10
2008,11,18,02,58,10.10
2008,11,18,02,59,10.10
2008,11,18,03,00,10.10
2008,11,18,03,01,10.10
2008,11,18,03,02,10.10
2008,11,18,03,03,10.10
2008,11,18,03,04,10.10
2008,11,18,03,05,10.10
2008,11,18,03,06,10.10
2008,11,18,03,07,10.10
2008,11,18,03,08,10.10
2008,11,18,03,09,10.10
2008,11,18,03,10,10.10
2008,11,18,03,11,10.10
2008,11,18,03,12,10.10
2008,11,18,03,13,10.10
2008,11,18,03,14,10.10
2008,11,18,03,15,10.10
2008,11,18,03,16,10.10
2008,11,18,03,17,10.10
2008,11,18,03,18,10.10
2008,11,18,03,19,10.10
2008,11,18,03,20,10.10
2008,11,18,03,21,10.10
2008,11,18,03,22,10.10
2008,11,18,03,23,10.10
2008,11,18,03,24,10.10
2008,11,18,03,25,10.00
2008,11,18,03,26,10.00
2008,11,18,03,27,10.00
2008,11,18,03,28,10.00
2008,11,18,03,29,10.00
2008,11,18,03,30,10.00
2008,11,18,03,31,9.90
2008,11,18,03,32,9.90
2008,11,18,03,33,9.90
2008,11,18,03,34,9.90
2008,11,18,03,35,9.90
2008,11,18,03,36,9.90
2008,11,18,03,37,9.90
2008,11,18,03,38,9.90
2008,11,18,03,39,9.90
2008,11,18,03,40,9.90
2008,11,18,03,41,9.90
2008,11,18,03,42,9.90
2008,11,18,03,43,9.90
2008,11,18,03,44,9.90
2008,11,18,03,45,9.90
2008,11,18,03,46,9.90
2008,11,18,03,47,9.90
2008,11,18,03,48,9.90
2008,11,18,03,49,9.90
2008,11,18,03,50,10.00
2008,11,18,03,51,10.00
2008,11,18,03,52,10.10
2008,11,18,03,53,10.10
2008,11,18,03,54,10.10
2008,11,18,03,55,10.10
2008,11,18,03,56,10.10
2008,11,18,03,57,10.10
2008,11,18,03,58,10.10
2008,11,18,03,59,10.10
2008,11,18,04,00,10.10
2008,11,18,04,01,10.20
2008,11,18,04,02,10.20
2008,11,18,04,03,10.20
2008,11,18,04,04,10.20
2008,11,18,04,05,10.20
2008,11,18,04,06,10.20
2008,11,18,04,07,10.20
2008,11,18,04,08,10.10
2008,11,18,04,09,10.10
2008,11,18,04,10,10.10
2008,11,18,04,11,10.00
2008,11,18,04,12,10.00
2008,11,18,04,13,9.90
2008,11,18,04,14,9.90
2008,11,18,04,15,9.80
2008,11,18,04,16,9.80
2008,11,18,04,17,9.80
2008,11,18,04,18,9.70
2008,11,18,04,19,9.70
2008,11,18,04,20,9.70
2008,11,18,04,21,9.60
2008,11,18,04,22,9.60
2008,11,18,04,23,9.60
2008,11,18,04,24,9.60
2008,11,18,04,25,9.50
2008,11,18,04,26,9.50
2008,11,18,04,27,9.40
2008,11,18,04,28,9.40
2008,11,18,04,29,9.40
2008,11,18,04,30,9.30
2008,11,18,04,31,9.30
2008,11,18,04,32,9.30
2008,11,18,04,33,9.20
2008,11,18,04,34,9.20
2008,11,18,04,35,9.20
2008,11,18,04,36,9.10
2008,11,18,04,37,9.10
2008,11,18,04,38,9.10
2008,11,18,04,39,9.10
2008,11,18,04,40,9.00
2008,11,18,04,41,9.00
2008,11,18,04,42,9.00
2008,11,18,04,43,8.90
2008,11,18,04,44,8.90
2008,11,18,04,45,8.90
2008,11,18,04,46,8.90
2008,11,18,04,47,8.80
2008,11,18,04,48,8.80
2008,11,18,04,49,8.80
2008,11,18,04,50,8.70
2008,11,18,04,51,8.70
2008,11,18,04,52,8.70
2008,11,18,04,53,8.60
2008,11,18,04,54,8.60
2008,11,18,04,55,8.50
2008,11,18,04,56,8.50
2008,11,18,04,57,8.40
2008,11,18,04,58,8.40
2008,11,18,04,59,8.40
2008,11,18,05,00,8.40
2008,11,18,05,01,8.30
2008,11,18,05,02,8.30
2008,11,18,05,03,8.30
2008,11,18,05,04,8.30
2008,11,18,05,05,8.30
2008,11,18,05,06,8.40
2008,11,18,05,07,8.40
2008,11,18,05,08,8.30
2008,11,18,05,09,8.30
2008,11,18,05,10,8.30
2008,11,18,05,11,8.30
2008,11,18,05,12,8.30
2008,11,18,05,13,8.30
2008,11,18,05,14,8.30
2008,11,18,05,15,8.20
2008,11,18,05,16,8.20
2008,11,18,05,17,8.20
2008,11,18,05,18,8.20
2008,11,18,05,19,8.20
2008,11,18,05,20,8.10
2008,11,18,05,21,8.10
2008,11,18,05,22,8.10
2008,11,18,05,23,8.10
2008,11,18,05,24,8.00
2008,11,18,05,25,8.00
2008,11,18,05,26,8.00
2008,11,18,05,27,8.00
2008,11,18,05,28,8.00
2008,11,18,05,29,7.90
2008,11,18,05,30,7.90
2008,11,18,05,31,7.90
2008,11,18,05,32,7.80
2008,11,18,05,33,7.80
2008,11,18,05,34,7.80
2008,11,18,05,35,7.70
2008,11,18,05,36,7.70
2008,11,18,05,37,7.70
2008,11,18,05,38,7.60
2008,11,18,05,39,7.60
2008,11,18,05,40,7.50
2008,11,18,05,41,7.50
2008,11,18,05,42,7.50
2008,11,18,05,43,7.40
2008,11,18,05,44,7.40
2008,11,18,05,45,7.30
2008,11,18,05,46,7.30
2008,11,18,05,47,7.20
2008,11,18,05,48,7.20
2008,11,18,05,49,7.20
2008,11,18,05,50,7.10
2008,11,18,05,51,7.10
2008,11,18,05,52,7.10
2008,11,18,05,53,7.00
2008,11,18,05,54,7.00
2008,11,18,05,55,6.90
2008,11,18,05,56,6.90
2008,11,18,05,57,6.80
2008,11,18,05,58,6.80
2008,11,18,05,59,6.80
2008,11,18,06,00,6.80
2008,11,18,06,01,6.70
2008,11,18,06,02,6.70
2008,11,18,06,03,6.70
2008,11,18,06,04,6.70
2008,11,18,06,05,6.60
2008,11,18,06,06,6.60
2008,11,18,06,07,6.60
2008,11,18,06,08,6.50
2008,11,18,06,09,6.50
2008,11,18,06,10,6.50
2008,11,18,06,11,6.40
2008,11,18,06,12,6.40
2008,11,18,06,13,6.40
2008,11,18,06,14,6.40
2008,11,18,06,15,6.40
2008,11,18,06,16,6.40
2008,11,18,06,17,6.40
2008,11,18,06,18,6.40
2008,11,18,06,19,6.40
2008,11,18,06,20,6.40
2008,11,18,06,21,6.40
2008,11,18,06,22,6.30
2008,11,18,06,23,6.30
2008,11,18,06,24,6.30
2008,11,18,06,25,6.30
2008,11,18,06,26,6.30
2008,11,18,06,27,6.30
2008,11,18,06,28,6.20
2008,11,18,06,29,6.20
2008,11,18,06,30,6.20
2008,11,18,06,31,6.10
2008,11,18,06,32,6.10
2008,11,18,06,33,6.10
2008,11,18,06,34,6.00
2008,11,18,06,35,6.00
2008,11,18,06,36,5.90
2008,11,18,06,37,5.90
2008,11,18,06,38,5.90
2008,11,18,06,39,5.90
2008,11,18,06,40,5.90
2008,11,18,06,41,5.80
2008,11,18,06,42,5.80
2008,11,18,06,43,5.80
2008,11,18,06,44,5.80
2008,11,18,06,45,5.80
2008,11,18,06,46,5.70
2008,11,18,06,47,5.70
2008,11,18,06,48,5.70
2008,11,18,06,49,5.70
2008,11,18,06,50,5.70
2008,11,18,06,51,5.70
2008,11,18,06,52,5.70
2008,11,18,06,53,5.60
2008,11,18,06,54,5.60
2008,11,18,06,55,5.60
2008,11,18,06,56,5.60
2008,11,18,06,57,5.60
2008,11,18,06,58,5.60
2008,11,18,06,59,5.60
2008,11,18,07,00,5.60
2008,11,18,07,01,5.50
2008,11,18,07,02,5.50
2008,11,18,07,03,5.50
2008,11,18,07,04,5.40
2008,11,18,07,05,5.40
2008,11,18,07,06,5.40
2008,11,18,07,07,5.40
2008,11,18,07,08,5.40
2008,11,18,07,09,5.30
2008,11,18,07,10,5.30
2008,11,18,07,11,5.30
2008,11,18,07,12,5.30
2008,11,18,07,13,5.30
2008,11,18,07,14,5.20
2008,11,18,07,15,5.20
2008,11,18,07,16,5.20
2008,11,18,07,17,5.20
2008,11,18,07,18,5.20
2008,11,18,07,19,5.20
2008,11,18,07,20,5.20
2008,11,18,07,21,5.20
2008,11,18,07,22,5.10
2008,11,18,07,23,5.10
2008,11,18,07,24,5.10
2008,11,18,07,25,5.10
2008,11,18,07,26,5.10
2008,11,18,07,27,5.10
2008,11,18,07,28,5.20
2008,11,18,07,29,5.20
2008,11,18,07,30,5.20
2008,11,18,07,31,5.20
2008,11,18,07,32,5.20
2008,11,18,07,33,5.30
2008,11,18,07,34,5.30
2008,11,18,07,35,5.30
2008,11,18,07,36,5.30
2008,11,18,07,37,5.30
2008,11,18,07,38,5.30
2008,11,18,07,39,5.30
2008,11,18,07,40,5.30
2008,11,18,07,41,5.40
2008,11,18,07,42,5.40
2008,11,18,07,43,5.50
2008,11,18,07,44,5.50
2008,11,18,07,45,5.60
2008,11,18,07,46,5.60
2008,11,18,07,47,5.70
2008,11,18,07,48,5.70
2008,11,18,07,49,5.70
2008,11,18,07,50,5.70
2008,11,18,07,51,5.70
2008,11,18,07,52,5.70
2008,11,18,07,53,5.70
2008,11,18,07,54,5.70
2008,11,18,07,55,5.70
2008,11,18,07,56,5.60
2008,11,18,07,57,5.60
2008,11,18,07,58,5.60
2008,11,18,07,59,5.70
2008,11,18,08,00,5.70
2008,11,18,08,01,5.70
2008,11,18,08,02,5.70
2008,11,18,08,03,5.70
2008,11,18,08,04,5.70
2008,11,18,08,05,5.70
2008,11,18,08,06,5.70
2008,11,18,08,07,5.70
2008,11,18,08,08,5.70
2008,11,18,08,09,5.70
2008,11,18,08,10,5.70
2008,11,18,08,11,5.70
2008,11,18,08,12,5.70
2008,11,18,08,13,5.70
2008,11,18,08,14,5.70
2008,11,18,08,15,5.70
2008,11,18,08,16,5.70
2008,11,18,08,17,5.70
2008,11,18,08,18,5.70
2008,11,18,08,19,5.70
2008,11,18,08,20,5.70
2008,11,18,08,21,5.70
2008,11,18,08,22,5.70
2008,11,18,08,23,5.80
2008,11,18,08,24,5.80
2008,11,18,08,25,5.80
2008,11,18,08,26,5.80
2008,11,18,08,27,5.90
2008,11,18,08,28,5.90
2008,11,18,08,29,5.90
2008,11,18,08,30,5.90
2008,11,18,08,31,6.00
2008,11,18,08,32,6.00
2008,11,18,08,33,6.10
2008,11,18,08,34,6.10
2008,11,18,08,35,6.10
2008,11,18,08,36,6.10
2008,11,18,08,37,6.10
2008,11,18,08,38,6.10
2008,11,18,08,39,6.10
2008,11,18,08,40,6.10
2008,11,18,08,41,6.10
2008,11,18,08,42,6.10
2008,11,18,08,43,6.10
2008,11,18,08,44,6.10
2008,11,18,08,45,6.10
2008,11,18,08,46,6.10
2008,11,18,08,47,6.20
2008,11,18,08,48,6.10
2008,11,18,08,49,6.20
2008,11,18,08,50,6.20
2008,11,18,08,51,6.20
2008,11,18,08,52,6.20
2008,11,18,08,53,6.20
2008,11,18,08,54,6.20
2008,11,18,08,55,6.20
2008,11,18,08,56,6.20
2008,11,18,08,57,6.20
2008,11,18,08,58,6.30
2008,11,18,08,59,6.30
2008,11,18,09,00,6.30
2008,11,18,09,01,6.30
2008,11,18,09,02,6.40
2008,11,18,09,03,6.40
2008,11,18,09,04,6.50
2008,11,18,09,05,6.50
2008,11,18,09,06,6.60
2008,11,18,09,07,6.60
2008,11,18,09,08,6.60
2008,11,18,09,09,6.70
2008,11,18,09,10,6.70
2008,11,18,09,11,6.70
2008,11,18,09,12,6.70
2008,11,18,09,13,6.70
2008,11,18,09,14,6.80
2008,11,18,09,15,6.80
2008,11,18,09,16,6.80
2008,11,18,09,17,6.80
2008,11,18,09,18,6.90
2008,11,18,09,19,6.90
2008,11,18,09,20,6.90
2008,11,18,09,21,6.90
2008,11,18,09,22,6.90
2008,11,18,09,23,6.90
2008,11,18,09,24,6.90
2008,11,18,09,25,7.00
2008,11,18,09,26,7.00
2008,11,18,09,27,7.00
2008,11,18,09,28,7.10
2008,11,18,09,29,7.10
2008,11,18,09,30,7.10
2008,11,18,09,31,7.10
2008,11,18,09,32,7.10
2008,11,18,09,33,7.10
2008,11,18,09,34,7.20
2008,11,18,09,35,7.20
2008,11,18,09,36,7.20
2008,11,18,09,37,7.20
2008,11,18,09,38,7.20
2008,11,18,09,39,7.20
2008,11,18,09,40,7.20
2008,11,18,09,41,7.20
2008,11,18,09,42,7.20
2008,11,18,09,43,7.20
2008,11,18,09,44,7.20
2008,11,18,09,45,7.20
2008,11,18,09,46,7.20
2008,11,18,09,47,7.20
2008,11,18,09,48,7.20
2008,11,18,09,49,7.20
2008,11,18,09,50,7.30
2008,11,18,09,51,7.30
2008,11,18,09,52,7.30
2008,11,18,09,53,7.30
2008,11,18,09,54,7.30
2008,11,18,09,55,7.30
2008,11,18,09,56,7.30
2008,11,18,09,57,7.40
2008,11,18,09,58,7.40
2008,11,18,09,59,7.40
2008,11,18,10,00,7.40
2008,11,18,10,01,7.40
2008,11,18,10,02,7.40
2008,11,18,10,03,7.40
2008,11,18,10,04,7.40
2008,11,18,10,05,7.50
2008,11,18,10,06,7.50
2008,11,18,10,07,7.60
2008,11,18,10,08,7.60
2008,11,18,10,09,7.70
2008,11,18,10,10,7.70
2008,11,18,10,11,7.70
2008,11,18,10,12,7.80
2008,11,18,10,13,7.80
2008,11,18,10,14,7.80
2008,11,18,10,15,7.90
2008,11,18,10,16,7.90
2008,11,18,10,17,7.90
2008,11,18,10,18,7.90
2008,11,18,10,19,7.90
2008,11,18,10,20,7.90
2008,11,18,10,21,7.90
2008,11,18,10,22,7.90
2008,11,18,10,23,7.90
2008,11,18,10,24,7.90
2008,11,18,10,25,7.90
2008,11,18,10,26,7.90
2008,11,18,10,27,7.90
2008,11,18,10,28,7.90
2008,11,18,10,29,8.00
2008,11,18,10,30,8.00
2008,11,18,10,31,8.00
2008,11,18,10,32,8.00
2008,11,18,10,33,8.10
2008,11,18,10,34,8.10
2008,11,18,10,35,8.10
2008,11,18,10,36,8.10
2008,11,18,10,37,8.10
2008,11,18,10,38,8.10
2008,11,18,10,39,8.20
2008,11,18,10,40,8.20
2008,11,18,10,41,8.20
2008,11,18,10,42,8.20
2008,11,18,10,43,8.20
2008,11,18,10,44,8.20
2008,11,18,10,45,8.20
2008,11,18,10,46,8.20
2008,11,18,10,47,8.30
2008,11,18,10,48,8.30
2008,11,18,10,49,8.30
2008,11,18,10,50,8.30
2008,11,18,10,51,8.30
2008,11,18,10,52,8.40
2008,11,18,10,53,8.40
2008,11,18,10,54,8.50
2008,11,18,10,55,8.60
2008,11,18,10,56,8.60
2008,11,18,10,57,8.60
2008,11,18,10,58,8.70
2008,11,18,10,59,8.80
2008,11,18,11,00,8.80
2008,11,18,11,01,8.90
2008,11,18,11,02,9.00
2008,11,18,11,03,9.10
2008,11,18,11,04,9.10
2008,11,18,11,05,9.20
2008,11,18,11,06,9.30
2008,11,18,11,07,9.40
2008,11,18,11,08,9.50
2008,11,18,11,09,9.60
2008,11,18,11,10,9.70
2008,11,18,11,11,9.70
2008,11,18,11,12,9.70
2008,11,18,11,13,9.70
2008,11,18,11,14,9.70
2008,11,18,11,15,9.70
2008,11,18,11,16,9.70
2008,11,18,11,17,9.70
2008,11,18,11,18,9.70
2008,11,18,11,19,9.70
2008,11,18,11,20,9.70
2008,11,18,11,21,9.70
2008,11,18,11,22,9.70
2008,11,18,11,23,9.60
2008,11,18,11,24,9.60
2008,11,18,11,25,9.60
2008,11,18,11,26,9.60
2008,11,18,11,27,9.60
2008,11,18,11,28,9.60
2008,11,18,11,29,9.60
2008,11,18,11,30,9.60
2008,11,18,11,31,9.60
2008,11,18,11,32,9.60
2008,11,18,11,33,9.60
2008,11,18,11,34,9.60
2008,11,18,11,35,9.70
2008,11,18,11,36,9.70
2008,11,18,11,37,9.80
2008,11,18,11,38,9.80
2008,11,18,11,39,9.90
2008,11,18,11,40,9.90
2008,11,18,11,41,10.00
2008,11,18,11,42,10.00
2008,11,18,11,43,10.10
2008,11,18,11,44,10.10
2008,11,18,11,45,10.20
2008,11,18,11,46,10.20
2008,11,18,11,47,10.20
2008,11,18,11,48,10.20
2008,11,18,11,49,10.20
2008,11,18,11,50,10.10
2008,11,18,11,51,10.00
2008,11,18,11,52,9.90
2008,11,18,11,53,9.90
2008,11,18,11,54,9.90
2008,11,18,11,55,9.80
2008,11,18,11,56,9.80
2008,11,18,11,57,9.90
2008,11,18,11,58,9.90
2008,11,18,11,59,10.00
2008,11,18,12,00,10.00
2008,11,18,12,01,10.10
2008,11,18,12,02,10.20
2008,11,18,12,03,10.20
2008,11,18,12,04,10.30
2008,11,18,12,05,10.30
2008,11,18,12,06,10.30
2008,11,18,12,07,10.40
2008,11,18,12,08,10.40
2008,11,18,12,09,10.40
2008,11,18,12,10,10.40
2008,11,18,12,11,10.40
2008,11,18,12,12,10.40
2008,11,18,12,13,10.50
2008,11,18,12,14,10.50
2008,11,18,12,15,10.60
2008,11,18,12,16,10.70
2008,11,18,12,17,10.70
2008,11,18,12,18,10.80
2008,11,18,12,19,10.90
2008,11,18,12,20,10.90
2008,11,18,12,21,10.90
2008,11,18,12,22,10.90
2008,11,18,12,23,10.90
2008,11,18,12,24,10.90
2008,11,18,12,25,11.00
2008,11,18,12,26,11.00
2008,11,18,12,27,11.00
2008,11,18,12,28,10.90
2008,11,18,12,29,11.00
2008,11,18,12,30,11.00
2008,11,18,12,31,11.10
2008,11,18,12,32,11.10
2008,11,18,12,33,11.10
2008,11,18,12,34,11.10
2008,11,18,12,35,11.10
2008,11,18,12,36,11.10
2008,11,18,12,37,11.10
2008,11,18,12,38,11.10
2008,11,18,12,39,11.10
2008,11,18,12,40,11.00
2008,11,18,12,41,11.00
2008,11,18,12,42,11.00
2008,11,18,12,43,11.00
2008,11,18,12,44,11.10
2008,11,18,12,45,11.10
2008,11,18,12,46,11.10
2008,11,18,12,47,11.10
2008,11,18,12,48,11.10
2008,11,18,12,49,11.10
2008,11,18,12,50,11.20
2008,11,18,12,51,11.20
2008,11,18,12,52,11.20
2008,11,18,12,53,11.30
2008,11,18,12,54,11.30
2008,11,18,12,55,11.30
2008,11,18,12,56,11.30
2008,11,18,12,57,11.30
2008,11,18,12,58,11.30
2008,11,18,12,59,11.30
2008,11,18,13,00,11.30
2008,11,18,13,01,11.30
2008,11,18,13,02,11.40
2008,11,18,13,03,11.50
2008,11,18,13,04,11.60
2008,11,18,13,05,11.60
2008,11,18,13,06,11.60
2008,11,18,13,07,11.60
2008,11,18,13,08,11.60
2008,11,18,13,09,11.60
2008,11,18,13,10,11.60
2008,11,18,13,11,11.50
2008,11,18,13,12,11.50
2008,11,18,13,13,11.50
2008,11,18,13,14,11.40
2008,11,18,13,15,11.50
2008,11,18,13,16,11.50
2008,11,18,13,17,11.40
2008,11,18,13,18,11.40
2008,11,18,13,19,11.40
2008,11,18,13,20,11.40
2008,11,18,13,21,11.40
2008,11,18,13,22,11.50
2008,11,18,13,23,11.60
2008,11,18,13,24,11.70
2008,11,18,13,25,11.80
2008,11,18,13,26,11.80
2008,11,18,13,27,12.00
2008,11,18,13,28,12.10
2008,11,18,13,29,12.20
2008,11,18,13,30,12.20
2008,11,18,13,31,12.30
2008,11,18,13,32,12.30
2008,11,18,13,33,12.40
2008,11,18,13,34,12.40
2008,11,18,13,35,12.40
2008,11,18,13,36,12.50
2008,11,18,13,37,12.50
2008,11,18,13,38,12.60
2008,11,18,13,39,12.60
2008,11,18,13,40,12.70
2008,11,18,13,41,12.70
2008,11,18,13,42,12.70
2008,11,18,13,43,12.80
2008,11,18,13,44,12.80
2008,11,18,13,45,12.80
2008,11,18,13,46,12.80
2008,11,18,13,47,12.70
2008,11,18,13,48,12.70
2008,11,18,13,49,12.80
2008,11,18,13,50,12.80
2008,11,18,13,51,12.80
2008,11,18,13,52,12.80
2008,11,18,13,53,12.80
2008,11,18,13,54,12.80
2008,11,18,13,55,12.80
2008,11,18,13,56,12.70
2008,11,18,13,57,12.70
2008,11,18,13,58,12.70
2008,11,18,13,59,12.70
2008,11,18,14,00,12.70
2008,11,18,14,01,12.70
2008,11,18,14,02,12.70
2008,11,18,14,03,12.60
2008,11,18,14,04,12.60
2008,11,18,14,05,12.60
2008,11,18,14,06,12.60
2008,11,18,14,07,12.60
2008,11,18,14,08,12.70
2008,11,18,14,09,12.70
2008,11,18,14,10,12.70
2008,11,18,14,11,12.60
2008,11,18,14,12,12.60
2008,11,18,14,13,12.60
2008,11,18,14,14,12.60
2008,11,18,14,15,12.70
2008,11,18,14,16,12.70
2008,11,18,14,17,12.70
2008,11,18,14,18,12.60
2008,11,18,14,19,12.60
2008,11,18,14,20,12.60
2008,11,18,14,21,12.60
2008,11,18,14,22,12.60
2008,11,18,14,23,12.50
2008,11,18,14,24,12.50
2008,11,18,14,25,12.40
2008,11,18,14,26,12.30
2008,11,18,14,27,12.30
2008,11,18,14,28,12.20
2008,11,18,14,29,12.20
2008,11,18,14,30,12.10
2008,11,18,14,31,12.10
2008,11,18,14,32,12.00
2008,11,18,14,33,11.90
2008,11,18,14,34,11.80
2008,11,18,14,35,11.80
2008,11,18,14,36,11.70
2008,11,18,14,37,11.70
2008,11,18,14,38,11.60
2008,11,18,14,39,11.60
2008,11,18,14,40,11.60
2008,11,18,14,41,11.60
2008,11,18,14,42,11.50
2008,11,18,14,43,11.50
2008,11,18,14,44,11.50
2008,11,18,14,45,11.40
2008,11,18,14,46,11.40
2008,11,18,14,47,11.30
2008,11,18,14,48,11.30
2008,11,18,14,49,11.30
2008,11,18,14,50,11.20
2008,11,18,14,51,11.20
2008,11,18,14,52,11.20
2008,11,18,14,53,11.20
2008,11,18,14,54,11.10
2008,11,18,14,55,11.10
2008,11,18,14,56,11.10
2008,11,18,14,57,11.10
2008,11,18,14,58,11.00
2008,11,18,14,59,11.00
2008,11,18,15,00,11.00
2008,11,18,15,01,10.90
2008,11,18,15,02,10.90
2008,11,18,15,03,10.90
2008,11,18,15,04,10.80
2008,11,18,15,05,10.80
2008,11,18,15,06,10.70
2008,11,18,15,07,10.70
2008,11,18,15,08,10.60
2008,11,18,15,09,10.60
2008,11,18,15,10,10.50
2008,11,18,15,11,10.50
2008,11,18,15,12,10.50
2008,11,18,15,13,10.50
2008,11,18,15,14,10.40
2008,11,18,15,15,10.40
2008,11,18,15,16,10.40
2008,11,18,15,17,10.30
2008,11,18,15,18,10.30
2008,11,18,15,19,10.30
2008,11,18,15,20,10.30
2008,11,18,15,21,10.30
2008,11,18,15,22,10.30
2008,11,18,15,23,10.30
2008,11,18,15,24,10.30
2008,11,18,15,25,10.20
2008,11,18,15,26,10.20
2008,11,18,15,27,10.20
2008,11,18,15,28,10.20
2008,11,18,15,29,10.20
2008,11,18,15,30,10.20
2008,11,18,15,31,10.20
2008,11,18,15,32,10.20
2008,11,18,15,33,10.20
2008,11,18,15,34,10.20
2008,11,18,15,35,10.20
2008,11,18,15,36,10.20
2008,11,18,15,37,10.20
2008,11,18,15,38,10.20
2008,11,18,15,39,10.20
2008,11,18,15,40,10.20
2008,11,18,15,41,10.10
2008,11,18,15,42,10.10
2008,11,18,15,43,10.10
2008,11,18,15,44,10.10
2008,11,18,15,45,10.00
2008,11,18,15,46,10.00
2008,11,18,15,47,9.90
2008,11,18,15,48,9.90
2008,11,18,15,49,9.90
2008,11,18,15,50,9.80
2008,11,18,15,51,9.80
2008,11,18,15,52,9.70
2008,11,18,15,53,9.70
2008,11,18,15,54,9.60
2008,11,18,15,55,9.60
2008,11,18,15,56,9.60
2008,11,18,15,57,9.50
2008,11,18,15,58,9.40
2008,11,18,15,59,9.40
2008,11,18,16,00,9.30
2008,11,18,16,01,9.30
2008,11,18,16,02,9.20
2008,11,18,16,03,9.20
2008,11,18,16,04,9.20
2008,11,18,16,05,9.10
2008,11,18,16,06,9.10
2008,11,18,16,07,9.00
2008,11,18,16,08,9.00
2008,11,18,16,09,8.90
2008,11,18,16,10,8.80
2008,11,18,16,11,8.80
2008,11,18,16,12,8.70
2008,11,18,16,13,8.70
2008,11,18,16,14,8.60
2008,11,18,16,15,8.60
2008,11,18,16,16,8.50
2008,11,18,16,17,8.50
2008,11,18,16,18,8.40
2008,11,18,16,19,8.40
2008,11,18,16,20,8.30
2008,11,18,16,21,8.30
2008,11,18,16,22,8.20
2008,11,18,16,23,8.20
2008,11,18,16,24,8.10
2008,11,18,16,25,8.00
2008,11,18,16,26,8.00
2008,11,18,16,27,7.90
2008,11,18,16,28,7.90
2008,11,18,16,29,7.80
2008,11,18,16,30,7.80
2008,11,18,16,31,7.70
2008,11,18,16,32,7.70
2008,11,18,16,33,7.60
2008,11,18,16,34,7.50
2008,11,18,16,35,7.50
2008,11,18,16,36,7.40
2008,11,18,16,37,7.40
2008,11,18,16,38,7.30
2008,11,18,16,39,7.30
2008,11,18,16,40,7.20
2008,11,18,16,41,7.20
2008,11,18,16,42,7.10
2008,11,18,16,43,7.10
2008,11,18,16,44,7.00
2008,11,18,16,45,7.00
2008,11,18,16,46,6.90
2008,11,18,16,47,6.90
2008,11,18,16,48,6.80
2008,11,18,16,49,6.80
2008,11,18,16,50,6.70
2008,11,18,16,51,6.70
2008,11,18,16,52,6.70
2008,11,18,16,53,6.60
2008,11,18,16,54,6.60
2008,11,18,16,55,6.50
2008,11,18,16,56,6.50
2008,11,18,16,57,6.40
2008,11,18,16,58,6.40
2008,11,18,16,59,6.30
2008,11,18,17,00,6.30
2008,11,18,17,01,6.30
2008,11,18,17,02,6.20
2008,11,18,17,03,6.20
2008,11,18,17,04,6.20
2008,11,18,17,05,6.10
2008,11,18,17,06,6.10
2008,11,18,17,07,6.10
2008,11,18,17,08,6.10
2008,11,18,17,09,6.00
2008,11,18,17,10,6.00
2008,11,18,17,11,5.90
2008,11,18,17,12,5.90
2008,11,18,17,13,5.90
2008,11,18,17,14,5.90
2008,11,18,17,15,5.80
2008,11,18,17,16,5.80
2008,11,18,17,17,5.80
2008,11,18,17,18,5.70
2008,11,18,17,19,5.70
2008,11,18,17,20,5.70
2008,11,18,17,21,5.70
2008,11,18,17,22,5.70
2008,11,18,17,23,5.60
2008,11,18,17,24,5.60
2008,11,18,17,25,5.60
2008,11,18,17,26,5.60
2008,11,18,17,27,5.50
2008,11,18,17,28,5.50
2008,11,18,17,29,5.40
2008,11,18,17,30,5.40
2008,11,18,17,31,5.40
2008,11,18,17,32,5.40
2008,11,18,17,33,5.30
2008,11,18,17,34,5.30
2008,11,18,17,35,5.30
2008,11,18,17,36,5.30
2008,11,18,17,37,5.30
2008,11,18,17,38,5.20
2008,11,18,17,39,5.20
2008,11,18,17,40,5.20
2008,11,18,17,41,5.20
2008,11,18,17,42,5.20
2008,11,18,17,43,5.20
2008,11,18,17,44,5.10
2008,11,18,17,45,5.10